• In Denmark
  • List of Countries
  • For 7 days
  • Water Temperature
  • Satellite Maps
  • Weather Map
  • Weather Widgets
  • user-avatar
    Login

    Hourly Weather Bulakty

    Today, 23 October, Tuesday

    Time Temperature Precipitation Wind Pressure Humidity
    00:00 +10°C° 0 mm 2 mps 694 mmHg 47%
    01:00 +9°C° 0 mm 2 mps 694 mmHg 49%
    02:00 +9°C° 0 mm 2 mps 694 mmHg 50%
    03:00 +8°C° 0 mm 2 mps 695 mmHg 49%
    04:00 +8°C° 0 mm 2 mps 695 mmHg 50%
    05:00 +8°C° 0 mm 2 mps 695 mmHg 50%
    06:00 +10°C° 0 mm 1 mps 696 mmHg 50%
    07:00 +11°C° 0 mm 1 mps 696 mmHg 49%
    08:00 +12°C° 0 mm 1 mps 697 mmHg 48%
    09:00 +13°C° 0.1 mm 1 mps 697 mmHg 47%
    10:00 +14°C° 0.1 mm 2 mps 696 mmHg 46%
    11:00 +14°C° 0.1 mm 2 mps 696 mmHg 44%
    12:00 +15°C° 0.1 mm 2 mps 696 mmHg 45%
    13:00 +15°C° 0.1 mm 2 mps 696 mmHg 45%
    14:00 +15°C° 0.1 mm 2 mps 696 mmHg 45%
    15:00 +14°C° 0 mm 2 mps 696 mmHg 49%
    16:00 +12°C° 0 mm 2 mps 696 mmHg 52%
    17:00 +10°C° 0 mm 1 mps 696 mmHg 56%
    18:00 +9°C° 0 mm 2 mps 697 mmHg 56%
    19:00 +8°C° 0 mm 2 mps 697 mmHg 55%
    20:00 +8°C° 0 mm 2 mps 698 mmHg 55%
    21:00 +8°C° 0 mm 2 mps 698 mmHg 54%
    22:00 +7°C° 0 mm 2 mps 698 mmHg 54%
    23:00 +7°C° 0 mm 2 mps 698 mmHg 53%

    Tomorrow, 24 October, Wednesday

    Time Temperature Precipitation Wind Pressure Humidity
    00:00 +7°C° 0 mm 2 mps 698 mmHg 53%
    01:00 +7°C° 0 mm 2 mps 697 mmHg 53%
    02:00 +7°C° 0 mm 2 mps 697 mmHg 53%
    03:00 +7°C° 0 mm 2 mps 697 mmHg 53%
    04:00 +7°C° 0 mm 2 mps 697 mmHg 53%
    05:00 +7°C° 0 mm 2 mps 697 mmHg 53%
    06:00 +8°C° 0 mm 2 mps 697 mmHg 52%
    07:00 +9°C° 0 mm 2 mps 697 mmHg 51%
    08:00 +10°C° 0 mm 2 mps 697 mmHg 50%
    09:00 +12°C° 0 mm 2 mps 697 mmHg 47%
    10:00 +13°C° 0 mm 3 mps 697 mmHg 44%
    11:00 +16°C° 0 mm 3 mps 696 mmHg 41%
    12:00 +16°C° 0 mm 3 mps 696 mmHg 41%
    13:00 +16°C° 0 mm 3 mps 696 mmHg 41%
    14:00 +16°C° 0 mm 3 mps 696 mmHg 42%
    15:00 +14°C° 0 mm 3 mps 695 mmHg 45%
    16:00 +12°C° 0 mm 4 mps 695 mmHg 48%
    17:00 +11°C° 0 mm 4 mps 695 mmHg 51%
    18:00 +10°C° 0 mm 4 mps 695 mmHg 48%
    19:00 +10°C° 0 mm 4 mps 696 mmHg 46%
    20:00 +8°C° 0 mm 4 mps 696 mmHg 43%
    21:00 +8°C° 0 mm 4 mps 696 mmHg 42%
    22:00 +8°C° 0 mm 4 mps 696 mmHg 41%
    23:00 +9°C° 0 mm 3 mps 696 mmHg 41%

    Day after tomorrow, 25 October, Thursday

    Time Temperature Precipitation Wind Pressure Humidity
    00:00 +9°C° 0 mm 3 mps 696 mmHg 41%
    01:00 +9°C° 0 mm 3 mps 695 mmHg 41%
    02:00 +9°C° 0 mm 3 mps 695 mmHg 41%
    03:00 +8°C° 0 mm 3 mps 695 mmHg 41%
    04:00 +8°C° 0 mm 3 mps 695 mmHg 41%
    05:00 +8°C° 0 mm 3 mps 695 mmHg 42%
    06:00 +9°C° 0 mm 3 mps 696 mmHg 42%
    07:00 +10°C° 0 mm 3 mps 696 mmHg 42%
    08:00 +11°C° 0 mm 3 mps 696 mmHg 42%
    09:00 +14°C° 0 mm 2 mps 696 mmHg 41%
    10:00 +16°C° 0 mm 2 mps 696 mmHg 41%
    11:00 +17°C° 0 mm 2 mps 695 mmHg 40%
    12:00 +18°C° 0 mm 2 mps 695 mmHg 40%
    13:00 +18°C° 0 mm 2 mps 695 mmHg 39%
    14:00 +18°C° 0 mm 2 mps 695 mmHg 39%
    15:00 +17°C° 0 mm 2 mps 695 mmHg 40%
    16:00 +15°C° 0 mm 2 mps 695 mmHg 41%
    17:00 +14°C° 0 mm 2 mps 695 mmHg 43%
    18:00 +13°C° 0 mm 2 mps 695 mmHg 43%
    19:00 +13°C° 0 mm 2 mps 696 mmHg 43%
    20:00 +12°C° 0 mm 2 mps 696 mmHg 43%
    21:00 +12°C° 0 mm 2 mps 696 mmHg 43%
    22:00 +12°C° 0 mm 2 mps 696 mmHg 44%
    23:00 +12°C° 0 mm 2 mps 696 mmHg 45%

    26 October, Friday

    Time Temperature Precipitation Wind Pressure Humidity
    00:00 +12°C° 0 mm 2 mps 696 mmHg 46%
    01:00 +12°C° 0 mm 2 mps 696 mmHg 47%
    02:00 +12°C° 0 mm 2 mps 696 mmHg 47%
    03:00 +12°C° 0 mm 2 mps 696 mmHg 48%
    04:00 +10°C° 0 mm 2 mps 696 mmHg 49%
    05:00 +10°C° 0 mm 2 mps 696 mmHg 50%
    06:00 +12°C° 0 mm 2 mps 696 mmHg 49%
    07:00 +13°C° 0 mm 2 mps 696 mmHg 49%
    08:00 +14°C° 0 mm 2 mps 697 mmHg 48%
    09:00 +16°C° 0 mm 2 mps 697 mmHg 46%
    10:00 +17°C° 0 mm 2 mps 696 mmHg 44%
    11:00 +19°C° 0 mm 2 mps 696 mmHg 42%
    12:00 +19°C° 0 mm 2 mps 696 mmHg 41%
    13:00 +19°C° 0 mm 2 mps 696 mmHg 40%
    14:00 +19°C° 0 mm 2 mps 695 mmHg 39%
    15:00 +18°C° 0 mm 2 mps 695 mmHg 40%
    16:00 +16°C° 0 mm 3 mps 695 mmHg 42%
    17:00 +14°C° 0 mm 3 mps 695 mmHg 43%
    18:00 +13°C° 0 mm 3 mps 695 mmHg 44%
    19:00 +12°C° 0 mm 3 mps 695 mmHg 44%
    20:00 +12°C° 0 mm 3 mps 695 mmHg 44%
    21:00 +11°C° 0 mm 3 mps 695 mmHg 43%
    22:00 +11°C° 0 mm 3 mps 695 mmHg 43%
    23:00 +11°C° 0 mm 3 mps 695 mmHg 43%

    27 October, Saturday

    Time Temperature Precipitation Wind Pressure Humidity
    00:00 +11°C° 0 mm 3 mps 695 mmHg 43%
    01:00 +11°C° 0 mm 3 mps 695 mmHg 42%
    02:00 +10°C° 0 mm 3 mps 695 mmHg 42%
    03:00 +10°C° 0 mm 3 mps 695 mmHg 42%
    04:00 +10°C° 0 mm 3 mps 695 mmHg 42%
    05:00 +10°C° 0 mm 3 mps 696 mmHg 41%
    06:00 +11°C° 0 mm 3 mps 696 mmHg 41%
    07:00 +12°C° 0 mm 3 mps 696 mmHg 41%
    08:00 +13°C° 0 mm 3 mps 696 mmHg 41%
    09:00 +16°C° 0 mm 3 mps 696 mmHg 40%
    10:00 +18°C° 0 mm 3 mps 696 mmHg 39%
    11:00 +20°C° 0 mm 3 mps 696 mmHg 38%
    12:00 +20°C° 0 mm 3 mps 696 mmHg 38%
    13:00 +20°C° 0 mm 3 mps 695 mmHg 38%
    14:00 +21°C° 0 mm 3 mps 695 mmHg 37%
    15:00 +19°C° 0 mm 4 mps 695 mmHg 39%
    16:00 +18°C° 0 mm 4 mps 695 mmHg 40%
    17:00 +15°C° 0 mm 4 mps 695 mmHg 42%
    18:00 +15°C° 0 mm 4 mps 695 mmHg 42%
    19:00 +14°C° 0 mm 4 mps 695 mmHg 42%
    20:00 +14°C° 0 mm 4 mps 695 mmHg 41%
    21:00 +14°C° 0 mm 3 mps 695 mmHg 42%
    22:00 +14°C° 0 mm 3 mps 695 mmHg 43%
    23:00 +16°C° 0 mm 3 mps 695 mmHg 43%

    28 October, Sunday

    Time Temperature Precipitation Wind Pressure Humidity
    00:00 +16°C° 0.1 mm 3 mps 695 mmHg 45%
    01:00 +16°C° 0.1 mm 3 mps 695 mmHg 47%
    02:00 +16°C° 0.1 mm 2 mps 695 mmHg 49%
    03:00 +16°C° 0.1 mm 2 mps 696 mmHg 50%
    04:00 +16°C° 0.1 mm 2 mps 696 mmHg 51%
    05:00 +15°C° 0.1 mm 2 mps 696 mmHg 52%
    06:00 +16°C° 0 mm 2 mps 696 mmHg 52%
    07:00 +16°C° 0 mm 2 mps 696 mmHg 53%
    08:00 +17°C° 0 mm 2 mps 697 mmHg 53%
    09:00 +17°C° 0.2 mm 2 mps 697 mmHg 54%
    10:00 +17°C° 0.2 mm 2 mps 696 mmHg 55%
    11:00 +17°C° 0.2 mm 2 mps 696 mmHg 57%
    12:00 +16°C° 0.8 mm 3 mps 697 mmHg 66%
    13:00 +14°C° 0.8 mm 4 mps 697 mmHg 75%
    14:00 +13°C° 0.8 mm 5 mps 698 mmHg 84%
    15:00 +12°C° 2.2 mm 4 mps 699 mmHg 86%
    16:00 +11°C° 2.2 mm 4 mps 700 mmHg 87%
    17:00 +10°C° 2.2 mm 4 mps 701 mmHg 89%
    18:00 +10°C° 1.2 mm 3 mps 701 mmHg 88%
    19:00 +9°C° 1.2 mm 3 mps 702 mmHg 88%
    20:00 +8°C° 1.2 mm 3 mps 703 mmHg 87%
    21:00 +8°C° 0.8 mm 3 mps 703 mmHg 85%
    22:00 +8°C° 0.8 mm 3 mps 703 mmHg 83%
    23:00 +7°C° 0.8 mm 2 mps 704 mmHg 82%

    29 October, Monday

    Time Temperature Precipitation Wind Pressure Humidity
    00:00 +7°C° 0.2 mm 2 mps 704 mmHg 80%
    01:00 +7°C° 0.2 mm 2 mps 705 mmHg 78%
    02:00 +7°C° 0.2 mm 2 mps 706 mmHg 75%
    03:00 +6°C° 0.1 mm 2 mps 706 mmHg 75%
    04:00 +6°C° 0.1 mm 2 mps 707 mmHg 76%
    05:00 +6°C° 0.1 mm 2 mps 707 mmHg 76%
    06:00 +6°C° 0 mm 2 mps 708 mmHg 76%
    07:00 +5°C° 0 mm 3 mps 708 mmHg 77%
    08:00 +5°C° 0 mm 3 mps 709 mmHg 77%
    09:00 +7°C° 0 mm 3 mps 708 mmHg 73%
    10:00 +8°C° 0 mm 2 mps 708 mmHg 68%
    11:00 +8°C° 0 mm 2 mps 708 mmHg 64%
    12:00 +9°C° 0 mm 2 mps 708 mmHg 59%
    13:00 +9°C° 0 mm 2 mps 708 mmHg 55%
    14:00 +10°C° 0 mm 3 mps 707 mmHg 50%
    15:00 +9°C° 0 mm 3 mps 707 mmHg 52%
    16:00 +7°C° 0 mm 3 mps 707 mmHg 55%
    17:00 +5°C° 0 mm 3 mps 707 mmHg 57%
    18:00 +5°C° 0 mm 3 mps 707 mmHg 56%
    19:00 +5°C° 0 mm 3 mps 707 mmHg 55%
    20:00 +5°C° 0 mm 3 mps 707 mmHg 54%
    21:00 +5°C° 0 mm 3 mps 707 mmHg 54%
    22:00 +5°C° 0 mm 3 mps 707 mmHg 54%
    23:00 +5°C° 0 mm 3 mps 707 mmHg 53%
    Show more